[[{"header":{"parameterUnit":"m.s-1","parameterCategory":1,"la1":30.2991,"la2":30.254,"lo1":-89.0895,"lo2":-89.0444,"dy":0.0017,"dx":0.0017,"nx":28,"ny":28,"refTime":"2025-11-12T03:00:00:Z","depth":0,"parameterNumber":2,"parameterNumberName":"U-component_of_WINDS"},"data":[0,0,0,0,0,0,0,0,0,0,0,0,0,0,0,0,0,0,0,0,0,0,0,0,0,0,0,0,0,0,0,0,0,0,0,0,0,0,0,0,0,0,0,0,0,0,0,0,0,0,0,0,0,0,0,0,0,0,1.2015,1.2015,0,1.2003,1.2003,1.2003,1.192,1.1918,1.1916,1.1914,1.1902,1.1903,1.1905,0,0,0,0,0,0,0,0,0,0,0,0,0,1.1967,1.1969,1.2015,1.2015,1.2015,1.2003,1.2003,1.2003,1.192,1.1918,1.1915,1.1913,1.1901,1.1903,1.1905,0,0,0,0,0,0,0,0,0,0,0,0,0,1.1975,1.1969,1.2015,1.1972,1.1968,1.2003,1.2003,1.2003,1.1921,1.1918,1.1915,1.1912,1.1901,1.1903,1.1905,1.198,0,0,1.1912,1.1913,0,0,0,0,0,0,0,0,1.1975,1.1977,1.1979,1.1975,1.1971,1.196,1.1981,1.1995,1.1921,1.1939,1.1914,1.191,1.1924,1.1924,1.1928,1.198,1.1979,1.1913,1.1914,1.1915,1.1916,0,0,0,0,0,0,0,1.1974,1.1977,1.201,1.1979,1.1974,1.1954,1.1951,1.1984,1.1948,1.1937,1.1931,1.1931,1.1921,1.1926,1.1927,1.1979,1.1913,1.1915,1.1916,1.1917,1.2092,1.2095,0,0,0,0,0,0,1.198,1.1977,1.2011,1.201,1.1965,1.1957,1.1955,1.1966,1.1948,1.1942,1.1933,1.1927,1.1924,1.1925,1.1927,1.2013,1.1915,1.1917,1.1919,1.2088,1.2092,1.2096,0,0,0,0,0,0,1.1979,1.1984,1.2011,1.1992,1.1994,1.1961,1.1975,1.1968,1.1973,1.1945,1.1938,1.1945,1.1921,1.1923,1.1968,1.2011,1.1918,1.192,1.2085,1.209,1.2094,1.2187,0,0,0,0,0,0,1.1978,1.1984,1.2012,1.1993,1.1995,1.2052,1.1978,1.197,1.1977,1.1969,1.1954,1.1949,1.1919,1.1965,1.197,1.2013,1.1922,1.2081,1.2087,1.2093,1.218,1.2194,1.2207,0,0,0,0,0,1.1977,1.2039,1.2014,1.2018,1.203,1.2055,1.2056,1.202,1.1981,1.2009,1.1991,1.1949,1.2006,1.197,1.1975,1.202,1.2078,1.2085,1.2092,1.2174,1.2191,1.2206,0,0,0,0,0,0,1.2063,1.2035,1.2007,1.2065,1.2063,1.2041,1.2075,1.204,1.205,1.2041,1.1997,1.1994,1.2045,1.2037,1.1997,1.2091,1.2035,1.2043,1.2095,1.2111,1.2125,1.2125,1.1924,0,0,0,0,0,1.2089,1.2112,1.2086,1.214,1.214,1.2108,1.2118,1.2091,1.2087,1.2086,1.2071,1.2069,1.2086,1.2098,1.2113,1.2178,1.2174,1.2212,1.2225,1.2236,1.2244,1.2278,1.2295,1.212,1.212,1.212,0,0,1.2143,1.213,1.2147,1.2157,1.2152,1.2177,1.2108,1.2137,1.2155,1.209,1.2131,1.212,1.2115,1.217,1.2194,1.2165,1.2292,1.2246,1.2255,1.2256,1.2287,1.2304,1.2319,1.2125,1.2124,1.2123,0,0,1.2253,1.2246,1.2289,1.2286,1.228,1.2258,1.2269,1.2252,1.2243,1.2283,1.2234,1.2255,1.2286,1.2284,1.2288,1.2398,1.236,1.2404,1.2474,1.2508,1.2522,1.2534,1.2573,1.2588,1.2412,1.2412,1.2413,0,1.232,1.2355,1.2316,1.2349,1.2354,1.2297,1.234,1.2339,1.2338,1.2344,1.2311,1.2348,1.2341,1.2395,1.2422,1.2427,1.2437,1.2405,1.2523,1.2535,1.2545,1.2582,1.2597,1.2418,1.2417,1.2417,1.2416,0,1.2438,1.2464,1.25,1.25,1.251,1.2548,1.2515,1.2529,1.2502,1.2484,1.2525,1.2515,1.2526,1.2537,1.251,1.2587,1.2569,1.2531,1.2473,1.2568,1.2602,1.2616,1.2425,1.2423,1.2422,1.2421,0,0,1.2602,1.2581,1.2594,1.2594,1.2583,1.2602,1.2638,1.2648,1.2662,1.2663,1.2692,1.272,1.2684,1.2688,1.266,1.269,1.2778,1.2647,1.2647,1.2672,1.2862,1.2891,1.2908,1.2753,1.2756,1.2758,1.2863,0,1.2707,1.2767,1.2733,1.2797,1.282,1.2766,1.2797,1.2794,1.2778,1.2796,1.2778,1.2798,1.275,1.2752,1.2779,1.2762,1.2815,1.2754,1.2779,1.2781,1.2781,1.2926,1.2956,1.3055,1.2876,1.2878,1.2879,0,1.2838,1.2845,1.2912,1.2896,1.2905,1.2933,1.294,1.2958,1.2953,1.294,1.2945,1.291,1.2944,1.2888,1.2934,1.2893,1.2901,1.2895,1.2898,1.2898,1.2835,1.293,1.3086,1.3101,1.29,1.2898,1.2897,0,1.295,1.2976,1.3019,1.3021,1.3004,1.3026,1.302,1.3012,1.3021,1.3028,1.3033,1.3044,1.3049,1.3059,1.3028,1.299,1.3079,1.3019,1.3068,1.3069,1.3089,1.3088,1.3249,1.3096,1.3096,1.3095,1.3095,0,1.3071,1.3114,1.3069,1.3096,1.3142,1.3103,1.3151,1.3139,1.3133,1.3156,1.3111,1.3134,1.3092,1.3111,1.3087,1.3129,1.3132,1.3122,1.3116,1.3126,1.3127,1.3131,1.3123,1.3099,1.3098,1.3098,1.3097,0,1.3203,1.3176,1.3219,1.32,1.3196,1.3232,1.3215,1.3239,1.3221,1.3251,1.3256,1.3227,1.3247,1.3217,1.3234,1.3218,1.3276,1.3259,1.3278,1.3272,1.3322,1.3318,1.349,1.3511,1.3346,1.3348,1.3349,0,1.3282,1.3313,1.3298,1.331,1.3307,1.3328,1.3336,1.33,1.3311,1.3308,1.3332,1.3349,1.3359,1.3394,1.3375,1.3387,1.337,1.343,1.3371,1.3381,1.337,1.3368,1.3371,1.3441,1.3443,1.3445,1.3446,0,1.3424,1.3409,1.3423,1.3433,1.3444,1.345,1.3453,1.3466,1.3427,1.3442,1.3461,1.347,1.3487,1.3504,1.3512,1.3506,1.347,1.3465,1.3477,1.3487,1.3496,1.3492,1.3309,1.3461,1.3459,1.3458,1.3457,1.3457,1.3531,1.3557,1.355,1.3567,1.3565,1.3569,1.359,1.3575,1.3591,1.3601,1.3579,1.3605,1.36,1.3607,1.3605,1.3624,1.3598,1.3616,1.362,1.3624,1.3632,1.3494,1.3626,1.3625,1.3625,1.3625,1.3624,0,1.367,1.3663,1.368,1.3685,1.3699,1.3664,1.3665,1.3679,1.3702,1.37,1.3712,1.3735,1.3751,1.3733,1.3746,1.3765,1.3749,1.377,1.3768,1.3767,1.3655,1.3643,1.3783,1.3783,1.3783,1.3783,1.3783,1.3783,1.3744,1.3785,1.377,1.381,1.3802,1.3827,1.383,1.3834,1.3832,1.386,1.3873,1.3861,1.3853,1.3865,1.3878,1.3873,1.3879,1.3906,1.3895,1.379,1.3775,1.376,1.3748,1.3908,1.3908,1.4005,1.4006,1.4006]},{"header":{"parameterUnit":"m.s-1","parameterCategory":1,"la1":30.2991,"la2":30.254,"lo1":-89.0895,"lo2":-89.0444,"dy":0.0017,"dx":0.0017,"nx":28,"ny":28,"refTime":"2025-11-12T03:00:00:Z","depth":0,"parameterNumber":3,"parameterNumberName":"V-component_of_WINDS"},"data":[0,0,0,0,0,0,0,0,0,0,0,0,0,0,0,0,0,0,0,0,0,0,0,0,0,0,0,0,0,0,0,0,0,0,0,0,0,0,0,0,0,0,0,0,0,0,0,0,0,0,0,0,0,0,0,0,0,0,-1.2607,-1.2607,0,-1.2649,-1.2649,-1.265,-1.2663,-1.2663,-1.2663,-1.2663,-1.2703,-1.2705,-1.2706,0,0,0,0,0,0,0,0,0,0,0,0,0,-1.2537,-1.2538,-1.2607,-1.2607,-1.2608,-1.2649,-1.2649,-1.265,-1.2663,-1.2663,-1.2663,-1.2663,-1.2703,-1.2704,-1.2706,0,0,0,0,0,0,0,0,0,0,0,0,0,-1.2572,-1.2538,-1.2607,-1.2619,-1.2621,-1.2649,-1.2649,-1.265,-1.2663,-1.2663,-1.2663,-1.2663,-1.2702,-1.2704,-1.2706,-1.2723,0,0,-1.2712,-1.2713,0,0,0,0,0,0,0,0,-1.257,-1.2574,-1.2617,-1.2619,-1.262,-1.2651,-1.264,-1.2675,-1.2663,-1.2647,-1.2663,-1.2662,-1.2686,-1.2689,-1.2698,-1.2725,-1.2727,-1.2712,-1.2713,-1.2714,-1.2715,0,0,0,0,0,0,0,-1.2567,-1.2572,-1.2623,-1.2618,-1.262,-1.2623,-1.2627,-1.2646,-1.2667,-1.2649,-1.265,-1.2655,-1.2687,-1.2696,-1.2699,-1.2728,-1.2712,-1.2714,-1.2715,-1.2716,-1.2773,-1.2774,0,0,0,0,0,0,-1.2563,-1.257,-1.2622,-1.2625,-1.2594,-1.2624,-1.2629,-1.2641,-1.2667,-1.2671,-1.2655,-1.2655,-1.2693,-1.2696,-1.27,-1.2723,-1.2714,-1.2716,-1.2717,-1.2773,-1.2773,-1.2774,0,0,0,0,0,0,-1.2561,-1.2567,-1.262,-1.2598,-1.2605,-1.2626,-1.2639,-1.2642,-1.2651,-1.2672,-1.2676,-1.266,-1.2693,-1.2697,-1.2718,-1.2724,-1.2717,-1.2718,-1.2772,-1.2773,-1.2774,-1.2768,0,0,0,0,0,0,-1.2559,-1.2567,-1.2574,-1.2598,-1.2606,-1.2638,-1.2639,-1.2643,-1.2655,-1.2655,-1.2678,-1.2682,-1.2693,-1.2715,-1.272,-1.2727,-1.272,-1.2772,-1.2773,-1.2773,-1.2767,-1.2768,-1.2769,0,0,0,0,0,-1.2557,-1.2569,-1.2574,-1.258,-1.2615,-1.2638,-1.2643,-1.2656,-1.2655,-1.2662,-1.2676,-1.2681,-1.2723,-1.2717,-1.2723,-1.273,-1.2772,-1.2772,-1.2773,-1.2767,-1.2768,-1.2769,0,0,0,0,0,0,-1.2544,-1.2573,-1.2578,-1.2599,-1.2616,-1.264,-1.265,-1.2656,-1.2673,-1.2673,-1.2688,-1.2693,-1.2713,-1.2724,-1.2716,-1.2749,-1.2748,-1.275,-1.2741,-1.2742,-1.2742,-1.2739,-1.2721,0,0,0,0,0,-1.2544,-1.2561,-1.2585,-1.2601,-1.261,-1.2628,-1.2639,-1.2648,-1.2666,-1.2673,-1.2688,-1.2704,-1.2722,-1.2732,-1.2749,-1.277,-1.2775,-1.2777,-1.2778,-1.2778,-1.278,-1.2792,-1.2793,-1.2777,-1.2777,-1.2777,0,0,-1.2543,-1.2561,-1.257,-1.2599,-1.2613,-1.263,-1.2634,-1.2651,-1.2664,-1.2675,-1.2696,-1.2708,-1.2727,-1.2748,-1.2758,-1.2758,-1.2786,-1.278,-1.278,-1.2781,-1.2793,-1.2795,-1.2796,-1.2777,-1.2777,-1.2777,0,0,-1.2551,-1.2566,-1.2582,-1.2597,-1.2619,-1.2631,-1.2635,-1.2659,-1.2668,-1.2689,-1.2698,-1.2713,-1.2742,-1.2756,-1.2767,-1.2782,-1.2787,-1.2787,-1.279,-1.2802,-1.2803,-1.2804,-1.281,-1.2811,-1.2789,-1.2789,-1.2789,0,-1.2547,-1.2573,-1.2589,-1.2606,-1.2619,-1.2631,-1.2647,-1.2661,-1.2687,-1.2695,-1.2695,-1.2733,-1.2746,-1.2771,-1.2775,-1.2783,-1.2788,-1.2784,-1.2802,-1.2803,-1.2804,-1.281,-1.2812,-1.2789,-1.2789,-1.2789,-1.2789,0,-1.2568,-1.2586,-1.2596,-1.2622,-1.2636,-1.2653,-1.2671,-1.2683,-1.2691,-1.2704,-1.2726,-1.2743,-1.2764,-1.2771,-1.2779,-1.2797,-1.2796,-1.2799,-1.2797,-1.2806,-1.2811,-1.2813,-1.2788,-1.2788,-1.2788,-1.2788,0,0,-1.2567,-1.2603,-1.2607,-1.2619,-1.2646,-1.266,-1.2677,-1.2699,-1.2709,-1.2727,-1.2742,-1.2768,-1.2771,-1.2783,-1.2793,-1.2803,-1.2814,-1.2804,-1.2805,-1.2805,-1.2836,-1.2834,-1.2836,-1.2819,-1.2819,-1.2819,-1.2834,0,-1.2578,-1.261,-1.2626,-1.2651,-1.2669,-1.2681,-1.2697,-1.2714,-1.2727,-1.2743,-1.2757,-1.2775,-1.2777,-1.2785,-1.2796,-1.2811,-1.2821,-1.281,-1.2832,-1.2833,-1.2826,-1.2839,-1.2836,-1.2849,-1.2837,-1.2837,-1.2837,0,-1.2594,-1.2614,-1.2642,-1.2667,-1.2675,-1.2689,-1.2711,-1.2726,-1.2747,-1.2755,-1.277,-1.278,-1.2799,-1.2797,-1.2823,-1.2816,-1.2826,-1.2835,-1.2836,-1.2837,-1.2835,-1.2841,-1.2854,-1.2856,-1.2841,-1.284,-1.284,0,-1.2591,-1.2625,-1.2646,-1.2656,-1.2686,-1.2696,-1.2709,-1.2729,-1.2742,-1.2761,-1.2769,-1.279,-1.2801,-1.2817,-1.2832,-1.2829,-1.2857,-1.2856,-1.2864,-1.2864,-1.2868,-1.2868,-1.2883,-1.2876,-1.2876,-1.2876,-1.2876,0,-1.2602,-1.2618,-1.2645,-1.2658,-1.2677,-1.2694,-1.2713,-1.2726,-1.2745,-1.276,-1.2773,-1.2787,-1.2806,-1.2823,-1.2835,-1.2855,-1.286,-1.2867,-1.287,-1.2866,-1.2865,-1.2872,-1.2872,-1.2876,-1.2876,-1.2876,-1.2876,0,-1.2601,-1.262,-1.2644,-1.2671,-1.2678,-1.2691,-1.2714,-1.2727,-1.2741,-1.2761,-1.2767,-1.2788,-1.2809,-1.2826,-1.2852,-1.286,-1.2881,-1.2885,-1.2875,-1.2876,-1.2883,-1.2882,-1.2903,-1.2907,-1.2897,-1.2897,-1.2897,0,-1.2606,-1.2619,-1.2649,-1.2661,-1.2674,-1.2693,-1.2706,-1.2724,-1.2738,-1.2763,-1.2773,-1.2795,-1.2813,-1.2845,-1.2863,-1.2884,-1.2887,-1.2894,-1.289,-1.2886,-1.2887,-1.2886,-1.2888,-1.2893,-1.2893,-1.2893,-1.2893,0,-1.2613,-1.2622,-1.2642,-1.2665,-1.2681,-1.2699,-1.2718,-1.2727,-1.2749,-1.2763,-1.2785,-1.2799,-1.2827,-1.2849,-1.2872,-1.2884,-1.2892,-1.2895,-1.2897,-1.2893,-1.2886,-1.289,-1.2875,-1.2894,-1.2894,-1.2894,-1.2894,-1.2894,-1.2616,-1.2628,-1.2652,-1.2673,-1.2689,-1.2707,-1.2721,-1.2738,-1.2756,-1.2781,-1.2791,-1.2813,-1.2834,-1.2866,-1.2879,-1.2897,-1.2898,-1.2902,-1.2903,-1.2903,-1.2903,-1.2884,-1.2901,-1.2901,-1.2901,-1.2901,-1.2901,0,-1.2624,-1.264,-1.2659,-1.2686,-1.2703,-1.2711,-1.2732,-1.2746,-1.2765,-1.2785,-1.2803,-1.2829,-1.285,-1.287,-1.2892,-1.2902,-1.2907,-1.2908,-1.2907,-1.291,-1.2901,-1.2896,-1.2904,-1.2904,-1.2904,-1.2904,-1.2904,-1.2904,-1.263,-1.2652,-1.2664,-1.2695,-1.271,-1.2733,-1.2745,-1.2761,-1.2777,-1.2805,-1.2823,-1.2837,-1.2857,-1.2881,-1.29,-1.2906,-1.2913,-1.2913,-1.2919,-1.2911,-1.291,-1.291,-1.2905,-1.2915,-1.2915,-1.2927,-1.2927,-1.2927]}]]